ATLAS 5 CENTAUR DEB, 44658

Orbit data source: Space-Track

ATLAS 5 CENTAUR DEB, 44658 is space debris in HEO originally from a launch on Wed, 17 Oct 2018 UTC launched from the Air Force Eastern Test Range (AFETR). Debris objects in space refer to the collection of defunct objects orbiting the Earth. Examples of debris include non-operational satellites, rocket bodies, and fragments generated from explosions, collisions, or faulty payload assembly.

Not visible in the next 10 days
Identifier
44658, 2018-079U
Orbit
HEO
Country
Flag of USUS
Related business
Flag of USUnited Launch Alliance/Lockheed Martin (US)
Manufacturer
ULA Decatur
Mission
Spacecraft
Bus & Motor
Unknown
Mass
Unknown
Launch date (UTC)
2018-10-17 (8 years ago)
Launch vehicle
Unknown
Launch site
Air Force Eastern Test Range (AFETR)
Object type
Payload
Rocket body
Debris
Shape & HBR
Unknown shape, 1.1 m
Radar Cross Section
Medium (>0.1 m² and <1 m²)

Expand to show TLE details & history
Last TLE update: 3 days ago

TLE from 3 days ago
0 ATLAS 5 CENTAUR DEB
1 44658U 18079U   26170.22269461 -.00000120  00000-0  00000-0 0  9994
2 44658  13.7166  29.2480 4701250 321.1804  12.9533  1.81742316 47036
Epoch: 2026-06-19T05:20Z
TLE epoch observation values (Epoch: 2026-06-19T05:20:40.814Z)
Latitude
0.00011°
Longitude
41.61057°
Altitude
9,825.197 km
Speed
5.928 km/s
True Right ascension
01h 56m 56s
True Declination
0° 00' 00"
Sunlit
Object was in daylight at epoch
Visualization orbit readout
Latitude
Unknown
Longitude
Unknown
Altitude
Unknown
Speed
Unknown
Apparent Right ascension
Unknown
Apparent Declination
Unknown
Sunlit
N/A
Visualization observer readout
Local Sidereal Time
00:49:56
Azimuth
Unknown
Elevation
Unknown
Doppler factor
Unknown
Orbital elements
Apogee altitude
35,323.266 km
Perigee altitude
8,652.238 km
Semi-major axis
28,365.889 km
Eccentricity
0.47013
Inclination
13.7166°
RAAN
29.248°
Arg. of periapsis
321.1804°
True anomaly
38.74669°
Mean anomaly
12.9533°
Eccentric anomaly
23.84083°
Mean motion
0.45431 °/min
Orbital period
792.42 mins
BSTAR
0
Loading maneuver chart data...
Computing Atmospheric mass density...

Documentation

Showing up to 5 results
|